DW9080 Weather Reports


time (UTC)temp
C
wind
direction
speed
KPH
gust
KPH
rain 1hr
cm
rain 24hr
cm
rain mn
cm
humidity
%
barometer
mb
20260906214513 26 75 0.0 1.6 0.00 0.00 0.00 42 1002.5
20260906214016 26 39 0.0 0.0 0.00 0.00 0.00 42 1002.6
20260906213509 26 60 0.0 6.4 0.00 0.00 0.00 43 1002.6
20260906213011 26 72 0.0 6.4 0.00 0.00 0.00 41 1002.7
20260906212508 26 97 0.0 1.6 0.00 0.00 0.00 42 1002.9
20260906212050 27 78 0.0 1.6 0.00 0.00 0.00 44 1002.8
20260906211549 26 107 0.0 1.6 0.00 0.00 0.00 44 1002.9
20260906211048 25 162 0.0 0.0 0.00 0.00 0.00 48 1003.0
20260906210547 25 63 0.0 0.0 0.00 0.00 0.00 47 1003.3
20260906210105 25 69 0.0 0.0 0.00 0.00 0.00 48 1003.3
20260906205548 25 67 0.0 0.0 0.00 0.00 0.00 49 1003.4
20260906205027 25 72 0.0 0.0 0.00 0.00 0.00 48 1003.5
20260906204529 25 48 0.0 0.0 0.00 0.00 0.00 48 1003.6
20260906204026 26 46 0.0 1.6 0.00 0.00 0.00 46 1003.7
20260906203526 26 76 0.0 1.6 0.00 0.00 0.00 47 1003.8
20260906203032 26 57 0.0 1.6 0.00 0.00 0.00 44 1004.0
20260906202524 27 333 0.0 3.2 0.00 0.00 0.00 46 1004.0
20260906202007 27 75 0.0 8.0 0.00 0.00 0.00 47 1004.1
20260906201506 27 69 0.0 0.0 0.00 0.00 0.00 46 1004.2
20260906201003 27 315 0.0 0.0 0.00 0.00 0.00 44 1004.3
20260906200504 27 46 0.0 0.0 0.00 0.00 0.00 48 1004.5
20260906200003 26 262 0.0 0.0 0.00 0.00 0.00 45 1004.7
20260906195501 26 246 0.0 0.0 0.00 0.00 0.00 46 1004.8
20260906195050 25 211 0.0 1.6 0.00 0.00 0.00 45 1005.0
20260906194609 25 20 0.0 1.6 0.00 0.00 0.00 45 1005.0
20260906194047 26 36 0.0 1.6 0.00 0.00 0.00 44 1005.2
20260906193546 26 96 0.0 0.0 0.00 0.00 0.00 46 1005.3
20260906193046 26 23 0.0 1.6 0.00 0.00 0.00 44 1005.4
20260906192545 26 243 0.0 1.6 0.00 0.00 0.00 44 1005.6
20260906192043 25 163 0.0 6.4 0.00 0.00 0.00 45 1005.7
20260906191544 25 143 0.0 4.8 0.00 0.00 0.00 45 1005.9
20260906191044 25 60 0.0 4.8 0.00 0.00 0.00 43 1006.0
20260906190542 25 63 0.0 8.0 0.00 0.00 0.00 43 1006.1
20260906190042 25 232 0.0 9.7 0.00 0.00 0.00 45 1006.0
20260906185540 25 49 0.0 11.3 0.00 0.00 0.00 40 1006.1
20260906185043 26 27 0.0 4.8 0.00 0.00 0.00 43 1006.3
20260906184538 26 60 0.0 1.6 0.00 0.00 0.00 39 1006.4
20260906184041 25 122 0.0 3.2 0.00 0.00 0.00 45 1006.4
20260906183536 25 60 0.0 3.2 0.00 0.00 0.00 45 1006.5
20260906183040 25 165 0.0 3.2 0.00 0.00 0.00 46 1006.6
20260906182533 24 48 0.0 8.0 0.00 0.00 0.00 46 1006.6
20260906182032 24 56 1.6 8.0 0.00 0.00 0.00 46 1006.6
20260906181538 24 34 0.0 1.6 0.00 0.00 0.00 47 1006.8
20260906181030 24 32 0.0 1.6 0.00 0.00 0.00 48 1006.7
20260906180529 24 66 0.0 0.0 0.00 0.00 0.00 50 1007.0
20260906180037 24 70 0.0 1.6 0.00 0.00 0.00 49 1007.0
20260906175527 24 84 0.0 1.6 0.00 0.00 0.00 50 1007.0
20260906175008 24 301 0.0 3.2 0.00 0.00 0.00 53 1007.1
20260906174508 24 108 0.0 6.4 0.00 0.00 0.00 53 1007.1
20260906174007 23 89 0.0 6.4 0.00 0.00 0.00 54 1007.2
20260906173504 23 67 0.0 8.0 0.00 0.00 0.00 57 1007.2
20260906173008 23 114 0.0 8.0 0.00 0.00 0.00 57 1007.3
20260906172502 23 68 0.0 1.6 0.00 0.00 0.00 57 1007.3
20260906172046 23 45 0.0 14.5 0.00 0.00 0.00 56 1007.5
20260906171543 22 77 0.0 14.5 0.00 0.00 0.00 57 1007.5
20260906171042 23 44 0.0 9.7 0.00 0.00 0.00 57 1007.6
20260906170542 22 70 0.0 9.7 0.00 0.00 0.00 58 1007.6
20260906170050 23 69 1.6 4.8 0.00 0.00 0.00 58 1007.6
20260906165540 22 222 0.0 4.8 0.00 0.00 0.00 60 1007.7
20260906165022 22 108 0.0 3.2 0.00 0.00 0.00 61 1007.6
20260906164534 22 98 0.0 1.6 0.00 0.00 0.00 62 1007.5
20260906164018 22 338 0.0 1.6 0.00 0.00 0.00 63 1007.5
20260906163517 22 342 0.0 1.6 0.00 0.00 0.00 64 1007.8
20260906163025 21 64 0.0 1.6 0.00 0.00 0.00 65 1007.8
20260906162515 21 70 0.0 3.2 0.00 0.00 0.00 65 1008.0
20260906162114 21 236 0.0 3.2 0.00 0.00 0.00 64 1008.0
20260906161602 21 69 0.0 1.6 0.00 0.00 0.00 69 1008.1
20260906161054 21 72 0.0 1.6 0.00 0.00 0.00 70 1008.0
20260906160556 20 53 0.0 12.9 0.00 0.00 0.00 71 1008.0
20260906160056 21 67 4.8 12.9 0.00 0.00 0.00 71 1008.0
20260906155552 20 72 0.0 8.0 0.00 0.00 0.00 74 1008.2
20260906155052 20 76 0.0 8.0 0.00 0.00 0.00 74 1008.2
20260906154535 20 70 0.0 4.8 0.00 0.00 0.00 76 1008.2
20260906154033 19 77 0.0 1.6 0.00 0.00 0.00 78 1008.2
20260906153533 19 69 0.0 1.6 0.00 0.00 0.00 77 1008.2
20260906153039 18 135 0.0 1.6 0.00 0.00 0.00 79 1008.3
20260906152531 18 71 0.0 1.6 0.00 0.00 0.00 80 1008.2
20260906152031 18 37 0.0 0.0 0.00 0.00 0.00 83 1008.2
20260906151513 18 63 0.0 1.6 0.00 0.00 0.00 83 1008.2
20260906151013 17 44 0.0 1.6 0.00 0.00 0.00 85 1008.3
20260906150515 17 62 0.0 1.6 0.00 0.00 0.00 85 1008.3
20260906150116 17 314 0.0 1.6 0.00 0.00 0.00 86 1008.3
20260906145513 17 63 0.0 1.6 0.00 0.00 0.00 88 1008.1
20260906145013 17 65 0.0 1.6 0.00 0.00 0.00 89 1008.0
20260906144609 17 69 0.0 1.6 0.00 0.00 0.00 90 1008.1
20260906144056 16 61 0.0 1.6 0.00 0.00 0.00 90 1007.9
20260906143555 16 67 0.0 0.0 0.00 0.00 0.00 93 1007.9
20260906143055 16 138 0.0 0.0 0.00 0.00 0.00 96 1007.9
20260906142555 15 61 0.0 0.0 0.00 0.00 0.00 97 1007.9
20260906142055 14 60 0.0 0.0 0.00 0.00 0.00 97 1008.0
20260906141545 14 70 0.0 0.0 0.00 0.00 0.00 96 1007.9
20260906141040 14 104 0.0 0.0 0.00 0.00 0.00 97 1007.9
20260906140536 13 49 0.0 1.6 0.00 0.00 0.00 97 1007.7
20260906140040 13 68 0.0 1.6 0.00 0.00 0.00 97 1007.7
20260906135537 13 63 0.0 1.6 0.00 0.00 0.00 97 1007.7
20260906135036 13 70 0.0 0.0 0.00 0.00 0.00 97 1007.6
20260906134518 13 65 0.0 1.6 0.00 0.00 0.00 96 1007.5
20260906134017 13 87 0.0 1.6 0.00 0.00 0.00 96 1007.5
20260906133520 13 68 0.0 0.0 0.00 0.00 0.00 96 1007.4
20260906133016 13 63 0.0 0.0 0.00 0.00 0.00 96 1007.5
20260906132516 14 42 0.0 0.0 0.00 0.00 0.00 96 1007.6
20260906132016 13 73 0.0 0.0 0.00 0.00 0.00 96 1007.5
20260906131558 13 98 0.0 1.6 0.00 0.00 0.00 96 1007.5
20260906131058 13 61 0.0 1.6 0.00 0.00 0.00 96 1007.4
20260906130601 13 143 0.0 0.0 0.00 0.00 0.00 96 1007.2
20260906130057 14 82 0.0 0.0 0.00 0.00 0.00 96 1007.3
20260906125555 -17 0.0 0.0 0.00 0.00 0.00 1007.2
20260906125055 -17 0.0 0.0 0.00 0.00 0.00 1007.1
20260906124538 -17 0.0 0.0 0.00 0.00 0.00 1007.0
20260906124039 -17 0.0 0.0 0.00 0.00 0.00 1007.0
20260906123535 -17 0.0 0.0 0.00 0.00 0.00 1007.0
20260906123037 -17 0.0 0.0 0.00 0.00 0.00 1007.0
20260906122534 -17 0.0 0.0 0.00 0.00 0.00 1006.8
20260906122031 -17 0.0 0.0 0.00 0.00 0.00 1006.8
20260906121529 -17 0.0 0.0 0.00 0.00 0.00 1006.7
20260906121028 -17 0.0 0.0 0.00 0.00 0.00 1006.7
20260906120526 -17 0.0 0.0 0.00 0.00 0.00 1006.8
20260906120024 -17 0.0 0.0 0.00 0.00 0.00 1007.0
20260906115527 -17 0.0 0.0 0.00 0.00 0.00 1006.9
20260906115023 -17 0.0 0.0 0.00 0.00 0.00 1006.9
20260906114534 -17 0.0 0.0 0.00 0.00 0.00 1006.8
20260906114023 -17 0.0 0.0 0.00 0.00 0.00 1006.8
20260906113519 -17 0.0 0.0 0.00 0.00 0.00 1006.8
20260906113016 -17 0.0 0.0 0.00 0.00 0.00 1006.9
20260906112515 -17 0.0 0.0 0.00 0.00 0.00 1006.7
20260906111512 -17 0.0 0.0 0.00 0.00 0.00 1006.9
20260906111011 -17 0.0 0.0 0.00 0.00 0.00 1006.9
20260906110509 -17 0.0 0.0 0.00 0.00 0.00 1006.9
20260906110010 -17 0.0 0.0 0.00 0.00 0.00 1006.7
20260906105506 -17 0.0 0.0 0.00 0.00 0.00 1006.6
20260906105009 -17 0.0 0.0 0.00 0.00 0.00 1006.6
20260906104508 -17 0.0 0.0 0.00 0.00 0.00 1006.6
20260906104002 -17 0.0 0.0 0.00 0.00 0.00 1006.5
20260906103601 -17 0.0 0.0 0.00 0.00 0.00 1006.5
20260906103100 -17 0.0 0.0 0.00 0.00 0.00 1006.4
20260906102557 -17 0.0 0.0 0.00 0.00 0.00 1006.3
20260906102157 -17 0.0 0.0 0.00 0.00 0.00 1006.2
20260906101558 -17 0.0 0.0 0.00 0.00 0.00 1006.2
20260906101057 -17 0.0 0.0 0.00 0.00 0.00 1006.2
20260906100555 -17 0.0 0.0 0.00 0.00 0.00 1006.2
20260906100054 15 131 0.0 0.0 0.00 0.00 0.00 93 1006.2
20260906095554 15 131 0.0 0.0 0.00 0.00 0.00 93 1006.1
20260906095055 15 129 0.0 0.0 0.00 0.00 0.00 93 1006.1
20260906094636 15 130 0.0 0.0 0.00 0.00 0.00 93 1006.2
20260906094052 15 130 0.0 0.0 0.00 0.00 0.00 93 1006.3
20260906093552 15 131 0.0 0.0 0.00 0.00 0.00 93 1006.3
20260906093102 15 90 0.0 0.0 0.00 0.00 0.00 93 1006.3
20260906092555 15 91 0.0 1.6 0.00 0.00 0.00 93 1006.5
20260906092151 15 63 0.0 0.0 0.00 0.00 0.00 93 1006.4
20260906091537 15 74 0.0 0.0 0.00 0.00 0.00 92 1006.4
20260906091030 15 73 0.0 0.0 0.00 0.00 0.00 92 1006.4
20260906090532 15 72 0.0 0.0 0.00 0.00 0.00 92 1006.5
20260906090029 15 79 0.0 0.0 0.00 0.00 0.00 92 1006.6
20260906085528 15 83 0.0 0.0 0.00 0.00 0.00 92 1006.7
20260906085028 15 84 0.0 0.0 0.00 0.00 0.00 92 1006.7
20260906084513 15 111 0.0 0.0 0.00 0.00 0.00 92 1006.8
20260906084014 16 111 0.0 0.0 0.00 0.00 0.00 92 1006.9
20260906083510 16 114 0.0 0.0 0.00 0.00 0.00 92 1006.8
20260906083010 16 117 0.0 0.0 0.00 0.00 0.00 91 1006.7
20260906082509 16 117 0.0 0.0 0.00 0.00 0.00 91 1006.7
20260906082011 16 67 0.0 0.0 0.00 0.00 0.00 91 1006.8
20260906081554 16 60 0.0 0.0 0.00 0.00 0.00 91 1006.7
20260906081051 16 84 0.0 1.6 0.00 0.00 0.00 91 1006.7
20260906080550 16 61 0.0 1.6 0.00 0.00 0.00 91 1006.7
20260906080054 16 69 0.0 1.6 0.00 0.00 0.00 91 1006.8
20260906075549 16 69 0.0 0.0 0.00 0.00 0.00 90 1006.8
20260906075150 16 61 0.0 0.0 0.00 0.00 0.00 90 1006.8
20260906074537 16 98 0.0 1.6 0.00 0.00 0.00 90 1006.8
20260906074036 16 70 0.0 0.0 0.00 0.00 0.00 90 1007.1
20260906073535 16 61 0.0 0.0 0.00 0.00 0.00 89 1007.2
20260906073034 16 55 0.0 1.6 0.00 0.00 0.00 89 1007.1
20260906072536 16 70 0.0 1.6 0.00 0.00 0.00 89 1007.1
20260906072034 17 62 0.0 1.6 0.00 0.00 0.00 88 1007.1
20260906071632 17 63 0.0 1.6 0.00 0.00 0.00 88 1007.3
20260906071034 17 41 0.0 1.6 0.00 0.00 0.00 88 1007.3
20260906070534 17 63 0.0 0.0 0.00 0.00 0.00 88 1007.3
20260906070031 17 63 0.0 1.6 0.00 0.00 0.00 88 1007.3
20260906065532 17 66 0.0 1.6 0.00 0.00 0.00 87 1007.3
20260906065032 17 60 0.0 0.0 0.00 0.00 0.00 87 1007.3
20260906064530 17 101 0.0 0.0 0.00 0.00 0.00 87 1007.3
20260906064030 17 63 0.0 1.6 0.00 0.00 0.00 86 1007.4
20260906063530 17 58 0.0 1.6 0.00 0.00 0.00 86 1007.6
20260906063033 17 73 0.0 1.6 0.00 0.00 0.00 85 1007.7
20260906062530 17 69 0.0 0.0 0.00 0.00 0.00 85 1007.6
20260906062030 17 73 0.0 0.0 0.00 0.00 0.00 85 1007.8
20260906061536 17 163 0.0 0.0 0.00 0.00 0.00 84 1007.7
20260906061029 17 165 0.0 0.0 0.00 0.00 0.00 83 1007.7
20260906060529 18 163 0.0 0.0 0.00 0.00 0.00 83 1007.6
20260906060029 18 165 0.0 0.0 0.00 0.00 0.00 82 1007.5
20260906055532 18 163 0.0 0.0 0.00 0.00 0.00 82 1007.5
20260906055030 18 163 0.0 0.0 0.00 0.00 0.00 82 1007.5
20260906054529 18 188 0.0 0.0 0.00 0.00 0.00 81 1007.5
20260906054011 18 72 0.0 0.0 0.00 0.00 0.00 82 1007.5
20260906053511 18 72 0.0 0.0 0.00 0.00 0.00 82 1007.4
20260906053016 18 72 0.0 0.0 0.00 0.00 0.00 82 1007.5
20260906052511 18 72 0.0 0.0 0.00 0.00 0.00 82 1007.5
20260906052011 18 70 0.0 0.0 0.00 0.00 0.00 82 1007.5
20260906051511 18 57 0.0 0.0 0.00 0.00 0.00 82 1007.6
20260906051058 18 57 0.0 0.0 0.00 0.00 0.00 82 1007.6
20260906050553 18 29 0.0 0.0 0.00 0.00 0.00 82 1007.8
20260906050112 18 69 0.0 0.0 0.00 0.00 0.00 81 1007.6
20260906045553 18 69 0.0 0.0 0.00 0.00 0.00 81 1007.5
20260906045052 18 69 0.0 1.6 0.00 0.00 0.00 80 1007.4
20260906044554 18 69 0.0 1.6 0.00 0.00 0.00 80 1007.4
20260906044036 18 69 0.0 0.0 0.00 0.00 0.00 79 1007.3
20260906043534 18 67 0.0 1.6 0.00 0.00 0.00 79 1007.4
20260906043042 18 114 0.0 4.8 0.00 0.00 0.00 79 1007.4
20260906042534 19 72 0.0 4.8 0.00 0.00 0.00 78 1007.3
20260906042034 19 60 0.0 1.6 0.00 0.00 0.00 78 1007.3
20260906041537 19 66 0.0 1.6 0.00 0.00 0.00 77 1007.1
20260906041021 19 61 0.0 3.2 0.00 0.00 0.00 77 1007.1
20260906040521 19 67 0.0 1.6 0.00 0.00 0.00 77 1007.0
20260906040017 19 63 0.0 3.2 0.00 0.00 0.00 77 1007.1
20260906035515 19 61 0.0 3.2 0.00 0.00 0.00 77 1007.1
20260906035015 19 112 0.0 1.6 0.00 0.00 0.00 77 1007.0
20260906034516 19 63 0.0 1.6 0.00 0.00 0.00 76 1006.9
20260906034057 20 76 0.0 3.2 0.00 0.00 0.00 76 1006.9
20260906033558 20 62 0.0 3.2 0.00 0.00 0.00 75 1006.9
20260906033058 20 80 0.0 1.6 0.00 0.00 0.00 75 1006.7
20260906032557 20 110 0.0 3.2 0.00 0.00 0.00 75 1006.6
20260906032057 20 67 0.0 4.8 0.00 0.00 0.00 74 1006.5
20260906031602 20 89 0.0 6.4 0.00 0.00 0.00 74 1006.4
20260906031039 20 60 0.0 6.4 0.00 0.00 0.00 73 1006.2
20260906030539 20 208 0.0 4.8 0.00 0.00 0.00 72 1006.1
20260906030039 20 127 0.0 6.4 0.00 0.00 0.00 72 1006.0
20260906025539 20 49 0.0 4.8 0.00 0.00 0.00 71 1005.9
20260906025039 20 70 0.0 4.8 0.00 0.00 0.00 70 1005.8
20260906024542 20 61 0.0 3.2 0.00 0.00 0.00 69 1005.7
20260906024025 20 50 0.0 1.6 0.00 0.00 0.00 68 1005.5
20260906023521 20 46 0.0 9.7 0.00 0.00 0.00 66 1005.5
20260906023020 20 124 1.6 9.7 0.00 0.00 0.00 64 1005.4
20260906022521 20 72 0.0 1.6 0.00 0.00 0.00 63 1005.3
20260906022020 21 137 0.0 1.6 0.00 0.00 0.00 62 1005.2
20260906021520 21 54 0.0 1.6 0.00 0.00 0.00 60 1005.2
20260906021002 21 156 0.0 3.2 0.00 0.00 0.00 59 1005.0
20260906020502 21 63 0.0 3.2 0.00 0.00 0.00 58 1005.0
20260906020002 21 49 0.0 1.6 0.00 0.00 0.00 58 1004.9
20260906015504 21 69 0.0 1.6 0.00 0.00 0.00 57 1004.7
20260906015002 21 63 0.0 1.6 0.00 0.00 0.00 57 1004.6
20260906014502 21 61 0.0 1.6 0.00 0.00 0.00 56 1004.6
20260906014045 21 84 0.0 1.6 0.00 0.00 0.00 56 1004.5
20260906013543 21 74 0.0 1.6 0.00 0.00 0.00 56 1004.4
20260906013043 22 27 0.0 1.6 0.00 0.00 0.00 57 1004.3
20260906012542 22 62 0.0 1.6 0.00 0.00 0.00 56 1004.3
20260906012043 22 68 0.0 1.6 0.00 0.00 0.00 56 1004.2
20260906011543 22 61 0.0 1.6 0.00 0.00 0.00 55 1004.1
20260906011030 22 73 0.0 0.0 0.00 0.00 0.00 54 1004.0
20260906010524 23 50 0.0 1.6 0.00 0.00 0.00 53 1004.0
20260906010024 23 59 0.0 1.6 0.00 0.00 0.00 52 1003.9
20260906005525 23 70 0.0 1.6 0.00 0.00 0.00 52 1003.7
20260906005024 23 76 0.0 1.6 0.00 0.00 0.00 51 1003.8
20260906004524 23 75 0.0 1.6 0.00 0.00 0.00 51 1003.7
20260906004006 24 62 0.0 1.6 0.00 0.00 0.00 50 1003.6
20260906003507 24 63 0.0 1.6 0.00 0.00 0.00 50 1003.5
20260906003008 25 68 0.0 1.6 0.00 0.00 0.00 48 1003.4
20260906002506 25 74 0.0 1.6 0.00 0.00 0.00 46 1003.3
20260906002006 25 77 0.0 1.6 0.00 0.00 0.00 44 1003.4
20260906001506 25 71 0.0 1.6 0.00 0.00 0.00 42 1003.4
20260906001048 26 74 0.0 1.6 0.00 0.00 0.00 41 1003.3
20260906000551 26 41 0.0 1.6 0.00 0.00 0.00 41 1003.2
20260906000048 26 69 0.0 1.6 0.00 0.00 0.00 40 1003.0
20260905235547 26 77 0.0 1.6 0.00 0.00 0.00 40 1003.1
20260905235048 26 56 0.0 1.6 0.00 0.00 0.00 39 1003.1
20260905234547 26 49 0.0 1.6 0.00 0.00 0.00 38 1003.0
20260905234032 26 67 0.0 1.6 0.00 0.00 0.00 35 1003.0
20260905233529 26 60 0.0 3.2 0.00 0.00 0.00 36 1003.1
20260905233032 27 72 0.0 1.6 0.00 0.00 0.00 36 1003.2
20260905232531 27 58 0.0 0.0 0.00 0.00 0.00 36 1003.1
20260905232029 27 74 0.0 1.6 0.00 0.00 0.00 35 1003.0
20260905231529 27 72 0.0 1.6 0.00 0.00 0.00 33 1003.0
20260905231009 27 65 0.0 3.2 0.00 0.00 0.00 33 1003.0
20260905230509 27 39 0.0 3.2 0.00 0.00 0.00 34 1003.0
20260905230012 27 58 0.0 0.0 0.00 0.00 0.00 32 1003.0
20260905225508 27 53 0.0 1.6 0.00 0.00 0.00 34 1003.2
20260905225007 27 109 0.0 1.6 0.00 0.00 0.00 32 1003.3
20260905224507 27 60 0.0 1.6 0.00 0.00 0.00 34 1003.4
20260905224107 27 67 0.0 1.6 0.00 0.00 0.00 34 1003.4
20260905223549 27 60 0.0 1.6 0.00 0.00 0.00 34 1003.4
20260905223049 27 44 0.0 3.2 0.00 0.00 0.00 34 1003.3
20260905222549 27 61 0.0 3.2 0.00 0.00 0.00 33 1003.1
20260905222048 27 67 0.0 4.8 0.00 0.00 0.00 33 1003.3
20260905221549 27 8 0.0 4.8 0.00 0.00 0.00 35 1003.3
20260905221046 27 76 0.0 1.6 0.00 0.00 0.00 35 1003.4
20260905220528 27 60 0.0 0.0 0.00 0.00 0.00 35 1003.4
20260905220029 27 277 0.0 1.6 0.00 0.00 0.00 38 1003.5
20260905215527 27 325 0.0 1.6 0.00 0.00 0.00 37 1003.5
20260905215027 27 75 0.0 1.6 0.00 0.00 0.00 35 1003.6